Powrót do katalogu

COSMOS 2491 DEB

AktywnyPO
NORAD 57552·DEBRIS·🇷🇺 Russia

Wystrzelony Dec 25, 2013 z Plesetsk Cosmodrome

Loading…

Następne Przeloty (najbliższe 24 godziny)

TLE

NieaktualneSource: Space-Track

Epoka: Jul 4, 2026, 00:31 UTC

1 57552U 13076AP  26185.02174603  .00006711  00000-0  28753-1 0  9997
2 57552  82.4164  86.8139 0208316  56.3615 305.7166 12.75244132146631

Śledź COSMOS 2491 DEB w czasie rzeczywistym z AllMySat

Download on the App Store